Home   Weather   Cheltenham   Past weeks
Flag for United Kingdom

Past Weather in Cheltenham, England, United Kingdom — Yesterday and Last 2 Weeks

Now
43 °F

Quite cool.


Feels Like: 38 °F
Forecast: 52 / 43 °F
Wind: 8 mph from Northeast

Location: Little Rissington

Current Time: Mar 23, 2019 at 7:14:09 am

Latest Report: Mar 23, 2019 at 6:00 am


Visibility: 19 mi

Pressure: 30.43 "Hg

Humidity: 88%

Dew Point: 40 °F

Location of CheltenhamLocation

Past Weather in Cheltenham — Graph

°F

Cheltenham Temperature Yesterday

Maximum temperature yesterday: 51 °F (at 2:00 pm)
Minimum temperature yesterday: 44 °F (at 10:00 pm)
Average temperature yesterday: 48 °F

High & Low Weather Summary for the Past Weeks

 TemperatureHumidityPressure
High54 °F (Mar 14, 1:00 pm)100% (Mar 8, 8:00 pm)30.53 "Hg (Mar 8, 8:00 pm)
Low33 °F (Mar 10, 6:00 pm)45% (Mar 10, 2:00 pm)29.32 "Hg (Mar 16, 6:00 pm)
Average45 °F84%29.98 "Hg
* Reported Mar 8 5:00 am — Mar 23 5:00 am, Cheltenham. Weather by CustomWeather, © 2019

Note: Actual official high and low records may vary slightly from our data, if they occured in-between our weather recording intervals... More about our weather records

Advertising

Cheltenham Weather History for the Previous 24 Hours

Scroll right to see more
 ConditionsComfort  
Time TempWeatherWind HumidityBarometerVisibility
5:00 am
Sat, Mar 23
45 °FQuite cool.8 mph83%30.41 "Hg22 mi
4:00 am46 °FCool.9 mph86%30.39 "Hg19 mi
3:00 am46 °FCool.8 mph93%30.38 "Hg9 mi
2:00 am45 °FCool.2 mph95%30.37 "Hg3 mi
1:00 am45 °FCool.3 mph94%30.36 "Hg4 mi
12:00 am44 °FQuite cool.6 mph95%30.35 "Hg4 mi
11:00 pm
Fri, Mar 22
45 °FQuite cool.8 mph93%30.35 "Hg6 mi
10:00 pm44 °FQuite cool.7 mph93%30.35 "Hg6 mi
9:00 pm46 °FCool.12 mph91%30.34 "Hg8 mi
8:00 pm47 °FCool.8 mph85%30.33 "Hg12 mi
7:00 pm49 °FCool.12 mph83%30.33 "Hg17 mi
6:00 pm50 °FCool.9 mph81%30.32 "Hg22 mi
5:00 pm50 °FCool.10 mph78%30.30 "Hg25 mi
4:00 pm50 °FCool.16 mph75%30.30 "Hg28 mi
3:00 pm51 °FCool.16 mph76%30.30 "Hg28 mi
2:00 pm51 °FCool.17 mph75%30.31 "Hg28 mi
1:00 pm51 °FCool.16 mph78%30.32 "Hg25 mi
11:00 am49 °FCool.15 mph85%30.34 "Hg14 mi
10:00 am48 °FCool.14 mph88%30.35 "Hg11 mi
9:00 am47 °FCool.14 mph88%30.36 "Hg9 mi
8:00 am46 °FCool.13 mph92%30.36 "Hg6 mi
7:00 am46 °FCool.14 mph90%30.36 "Hg6 mi
Weather by CustomWeather, © 2019

See weather overview